• Join FlightAware (Why Join?)
  • Login
  • US Flag 
10:38PM EST


 

Airport Tracker/Info


-or-


 

Live Flight TrackerFlight Track Log ✈ SWA2147 ✈ 22-Jun-2013 ✈ KLAX - KHOU

Flight Track Log - Related Links

Times and Time Zones

All times are in EDT time to prevent confusion due to time zone crossing. See the SWA2147 flight status page for this flight to view local times or setup timezone preferences in your user account.

Time Position Orientation Groundspeed Altitude Reporting Facility
EDT Latitude Longitude Course Direction KTS MPH feet Rate Location/Type
01:25PM 33.9417 -118.4667 240° Southwest 187 215 1,700  Level Los Angeles Center
01:26PM 33.9100 -118.5328 240° Southwest 233 268 3,900 2,274 Climbing Los Angeles Center
01:27PM 33.8397 -118.5639 200° South 284 327 6,400 2,371 Climbing Los Angeles Center
01:28PM 33.7678 -118.5417 166° South 296 341 8,800 2,274 Climbing Los Angeles Center
01:29PM 33.6742 -118.4928 157° South 330 380 11,100 2,323 Climbing Los Angeles Center
01:30PM 33.6144 -118.4019 128° Southeast 351 404 13,600 2,081 Climbing Los Angeles Center
01:31PM 33.5528 -118.3069 128° Southeast 365 420 15,400 1,152 Climbing Los Angeles Center
01:32PM 33.5156 -118.1869 110° East 385 443 16,000 720 Climbing Los Angeles Center
01:33PM 33.5089 -118.0594 94° East 391 450 16,900 1,548 Climbing Los Angeles Center
01:34PM 33.5042 -117.9014 92° East 397 457 19,200 1,935 Climbing Los Angeles Center
01:35PM 33.4647 -117.7750 110° East 408 470 20,900 1,597 Climbing Los Angeles Center
01:36PM 33.4267 -117.6458 109° East 412 474 22,500 1,452 Climbing Los Angeles Center
01:37PM 33.3883 -117.5100 109° East 427 491 23,900 1,355 Climbing Los Angeles Center
01:38PM 33.3786 -117.3625 94° East 445 512 25,300 1,403 Climbing Los Angeles Center
01:39PM 33.3617 -117.1844 96° East 450 518 26,800 1,306 Climbing Los Angeles Center
01:40PM 33.3464 -117.0278 97° East 461 531 28,000 1,113 Climbing Los Angeles Center
01:41PM 33.3286 -116.8725 98° East 470 541 29,100 1,258 Climbing Los Angeles Center
01:42PM 33.3139 -116.7150 96° East 475 547 30,600 1,306 Climbing Los Angeles Center
01:44PM 33.3011 -116.5606 96° East 468 539 31,800 912 Climbing Los Angeles Center
01:45PM 33.2839 -116.4028 97° East 476 548 32,500 576 Climbing Los Angeles Center
01:46PM 33.2681 -116.2450 97° East 476 548 33,000 242 Climbing Los Angeles Center
01:47PM 33.2475 -116.0536 97° East 479 551 33,000  Level Los Angeles Center
01:48PM 33.2281 -115.8942 98° East 481 554 33,000  Level Los Angeles Center
01:49PM 33.2119 -115.7322 97° East 489 563 33,000  Level Los Angeles Center
01:50PM 33.1989 -115.5703 95° East 489 563 33,000 -48 Level Los Angeles Center
01:51PM 33.1869 -115.4069 95° East 492 566 32,900  Descending Los Angeles Center
01:52PM 33.1750 -115.2447 95° East 491 565 33,000 48 Climbing Los Angeles Center
01:53PM 33.1622 -115.0831 95° East 489 563 33,000  Level Los Angeles Center
01:54PM 33.1467 -114.8922 96° East 484 557 33,000  Level Los Angeles Center
01:55PM 33.1353 -114.7331 95° East 481 554 33,000  Level Los Angeles Center
01:56PM 33.1217 -114.5739 96° East 481 554 33,000  Level Los Angeles Center
01:57PM 33.1089 -114.4142 95° East 484 557 33,000  Level Los Angeles Center
01:58PM 33.1008 -114.2989 95° East 482 555 33,000  Level Albuquerque Center
01:59PM 33.0864 -114.1417 96° East 479 551 33,000  Level Albuquerque Center
02:00PM 33.0742 -113.9825 95° East 482 555 33,000  Level Albuquerque Center
02:01PM 33.0592 -113.8239 96° East 482 555 33,000  Level Albuquerque Center
02:02PM 33.0447 -113.6642 96° East 485 558 33,000 -49 Level Albuquerque Center
02:03PM 33.0281 -113.4733 96° East 484 557 32,900 -49 Descending Albuquerque Center
02:04PM 33.0133 -113.3136 96° East 483 556 32,900 48 Level Albuquerque Center
02:05PM 32.9989 -113.1542 96° East 483 556 33,000 48 Climbing Albuquerque Center
02:06PM 32.9836 -112.9964 97° East 480 552 33,000  Level Albuquerque Center
02:07PM 32.9681 -112.8372 97° East 480 552 33,000  Level Albuquerque Center
02:08PM 32.9519 -112.6767 97° East 483 556 33,000  Level Albuquerque Center
02:09PM 32.9361 -112.5161 97° East 485 558 33,000  Level Albuquerque Center
02:10PM 32.9197 -112.3556 97° East 487 560 33,000  Level Albuquerque Center
02:11PM 32.9031 -112.1825 96° East 489 563 33,000  Level Albuquerque Center
02:12PM 32.8867 -112.0231 97° East 489 563 33,000  Level Albuquerque Center
02:13PM 32.8714 -111.8642 96° East 489 563 33,000  Level Albuquerque Center
02:14PM 32.8536 -111.7056 98° East 488 562 33,000  Level Albuquerque Center
02:15PM 32.8339 -111.5158 97° East 485 558 33,000  Level Albuquerque Center
02:16PM 32.8175 -111.3581 97° East 485 558 33,000  Level Albuquerque Center
02:17PM 32.8003 -111.2017 97° East 481 554 33,000  Level Albuquerque Center
02:18PM 32.7819 -111.0442 98° East 483 556 33,000  Level Albuquerque Center
02:19PM 32.7642 -110.8878 98° East 481 554 33,000  Level Albuquerque Center
02:20PM 32.7472 -110.7314 97° East 479 551 33,000  Level Albuquerque Center
02:21PM 32.7261 -110.5514 98° East 477 549 33,000 439 Level Albuquerque Center
02:22PM 32.7092 -110.3967 97° East 479 551 33,900 823 Climbing Albuquerque Center
02:23PM 32.6917 -110.2444 98° East 473 544 34,700 537 Climbing Albuquerque Center
02:24PM 32.6728 -110.0919 98° East 473 544 35,000 146 Climbing Albuquerque Center
02:25PM 32.6547 -109.9367 98° East 478 550 35,000  Level Albuquerque Center
02:26PM 32.6317 -109.7511 98° East 479 551 35,000  Level Albuquerque Center
02:27PM 32.6117 -109.5961 99° East 483 556 35,000  Level Albuquerque Center
02:28PM 32.5931 -109.4439 98° East 479 551 35,000  Level Albuquerque Center
02:30PM 32.5725 -109.2889 99° East 480 552 35,000  Level Albuquerque Center
02:31PM 32.5536 -109.1367 98° East 478 550 35,000  Level Albuquerque Center
02:32PM 32.5306 -108.9556 99° East 472 543 35,000  Level Albuquerque Center
02:33PM 32.5111 -108.8061 99° East 469 540 35,000  Level Albuquerque Center
02:34PM 32.4917 -108.6564 99° East 468 539 35,000  Level Albuquerque Center
02:35PM 32.4719 -108.5061 99° East 468 539 35,000  Level Albuquerque Center
02:36PM 32.4528 -108.3561 99° East 467 537 35,000  Level Albuquerque Center
02:37PM 32.4294 -108.1908 99° East 465 535 35,000  Level Albuquerque Center
02:38PM 32.4097 -108.0400 99° East 465 535 35,000  Level Albuquerque Center
02:39PM 32.3892 -107.8906 99° East 464 534 35,000  Level Albuquerque Center
02:40PM 32.3647 -107.7119 99° East 461 531 35,000 -48 Level Albuquerque Center
02:41PM 32.3450 -107.5639 99° East 460 529 34,900  Descending Albuquerque Center
02:42PM 32.3225 -107.4081 100° East 457 526 35,000 49 Climbing Albuquerque Center
02:43PM 32.3008 -107.2608 100° East 459 528 35,000 49 Level Albuquerque Center
02:44PM 32.2833 -107.1061 98° East 458 527 35,100  Climbing Albuquerque Center
02:45PM 32.2586 -106.9456 100° East 461 531 35,000 -49 Descending Albuquerque Center
02:46PM 32.2381 -106.8022 100° East 458 527 35,000  Level Albuquerque Center
02:47PM 32.2167 -106.6536 100° East 460 529 35,000  Level Albuquerque Center
02:48PM 32.1947 -106.5072 100° East 457 526 35,000  Level Albuquerque Center
02:49PM 32.1719 -106.3581 100° East 462 532 35,000  Level Albuquerque Center
02:50PM 32.1497 -106.2081 100° East 465 535 35,000  Level Albuquerque Center
02:51PM 32.1272 -106.0589 100° East 464 534 35,000  Level Albuquerque Center
02:52PM 32.0994 -105.8911 101° East 464 534 35,000 -49 Level Albuquerque Center
02:53PM 32.0775 -105.7411 100° East 464 534 34,900  Descending Albuquerque Center
02:54PM 32.0542 -105.5903 100° East 467 537 35,000 49 Climbing Albuquerque Center
02:55PM 32.0300 -105.4414 101° East 464 534 35,000  Level Albuquerque Center
02:56PM 32.0064 -105.2917 100° East 464 534 35,000  Level Albuquerque Center
02:57PM 31.9783 -105.1111 100° East 466 536 35,000  Level Albuquerque Center
02:58PM 31.9544 -104.9608 101° East 466 536 35,000  Level Albuquerque Center
02:59PM 31.9289 -104.8092 101° East 469 540 35,000  Level Albuquerque Center
03:00PM 31.9050 -104.6589 101° East 467 537 35,000  Level Albuquerque Center
03:01PM 31.8806 -104.5089 101° East 467 537 35,000  Level Albuquerque Center
03:02PM 31.8564 -104.3578 101° East 469 540 35,000  Level Albuquerque Center
03:03PM 31.8300 -104.2061 102° East 470 541 35,000  Level Albuquerque Center
03:04PM 31.8053 -104.0558 101° East 470 541 35,000  Level Albuquerque Center
03:05PM 31.7803 -103.9069 101° East 467 537 35,000  Level Albuquerque Center
03:06PM 31.7494 -103.7358 102° East 467 537 35,000  Level Albuquerque Center
03:08PM 31.7231 -103.5864 102° East 467 537 35,000  Level Albuquerque Center
03:09PM 31.6983 -103.4383 101° East 466 536 35,000  Level Albuquerque Center
03:10PM 31.6714 -103.2900 102° East 467 537 35,000  Level Albuquerque Center
03:11PM 31.6444 -103.1414 102° East 467 537 35,000  Level Albuquerque Center
03:12PM 31.6136 -102.9642 102° East 466 536 35,000  Level Albuquerque Center
03:13PM 31.5875 -102.8175 102° East 463 533 35,000  Level Albuquerque Center
03:14PM 31.5611 -102.6706 102° East 463 533 35,000  Level Albuquerque Center
03:15PM 31.5344 -102.5228 102° East 465 535 35,000  Level Albuquerque Center
03:16PM 31.5075 -102.3767 102° East 462 532 35,000  Level Albuquerque Center
03:17PM 31.4806 -102.2297 102° East 463 533 35,000  Level Albuquerque Center
03:18PM 31.4533 -102.0831 102° East 463 533 35,000  Level Albuquerque Center
03:19PM 31.4208 -101.9075 102° East 463 533 35,000  Level Albuquerque Center
03:20PM 31.4036 -101.8094 102° East 463 533 35,000  Level Houston Center
03:21PM 31.3756 -101.6622 103° East 464 534 35,000  Level Houston Center
03:22PM 31.3472 -101.5142 103° East 465 535 35,000  Level Houston Center
03:23PM 31.3192 -101.3667 103° East 465 535 35,000  Level Houston Center
03:24PM 31.2858 -101.1883 102° East 467 537 35,000  Level Houston Center
03:25PM 31.2569 -101.0422 103° East 464 534 35,000  Level Houston Center
03:26PM 31.2275 -100.8947 103° East 465 535 35,000  Level Houston Center
03:27PM 31.1978 -100.7475 103° East 465 535 35,000  Level Houston Center
03:28PM 31.1694 -100.5986 103° East 468 539 35,000  Level Houston Center
03:29PM 31.1394 -100.4511 103° East 468 539 35,000  Level Houston Center
03:30PM 31.1106 -100.3031 103° East 469 540 35,000  Level Houston Center
03:31PM 31.0817 -100.1547 103° East 468 539 35,000  Level Houston Center
03:32PM 31.0539 -100.0064 102° East 468 539 35,000  Level Houston Center
03:33PM 31.0314 -99.8261 98° East 468 539 35,000  Level Houston Center
03:34PM 31.0128 -99.6756 98° East 468 539 35,000  Level Houston Center
03:35PM 30.9933 -99.5258 99° East 467 537 35,000  Level Houston Center
03:36PM 30.9733 -99.3761 99° East 467 537 35,000  Level Houston Center
03:37PM 30.9531 -99.2275 99° East 466 536 35,000  Level Houston Center
03:38PM 30.9308 -99.0628 99° East 467 537 35,000  Level Houston Center
03:39PM 30.9100 -98.9125 99° East 466 536 35,000  Level Houston Center
03:40PM 30.8900 -98.7628 99° East 465 535 35,000  Level Houston Center
03:41PM 30.8692 -98.6117 99° East 466 536 35,000  Level Houston Center
03:42PM 30.8478 -98.4625 99° East 465 535 35,000  Level Houston Center
03:43PM 30.8275 -98.3131 99° East 463 533 35,000  Level Houston Center
03:44PM 30.8053 -98.1619 100° East 469 540 35,000  Level Houston Center
03:45PM 30.7800 -97.9883 100° East 465 535 35,000 -244 Level Houston Center
03:46PM 30.7583 -97.8389 100° East 467 537 34,500 -706 Descending Houston Center
03:48PM 30.7325 -97.6672 100° East 461 531 33,400 -933 Descending Houston Center
03:49PM 30.7111 -97.5217 100° East 458 527 32,400 -976 Descending Houston Center
03:50PM 30.6794 -97.3803 105° East 456 525 31,400 -1,561 Descending Houston Center
03:51PM 30.6261 -97.2481 115° Southeast 452 520 29,200 -2,146 Descending Houston Center
03:52PM 30.5753 -97.1203 115° Southeast 440 506 27,000 -2,244 Descending Houston Center
03:53PM 30.5200 -96.9781 114° Southeast 418 481 24,600 -2,146 Descending Houston Center
03:54PM 30.4731 -96.8600 115° Southeast 403 464 22,600 -1,902 Descending Houston Center
03:55PM 30.4272 -96.7489 116° Southeast 386 444 20,700 -1,854 Descending Houston Center
03:56PM 30.3842 -96.6408 115° Southeast 371 427 18,800 -1,790 Descending Houston Center
03:57PM 30.3417 -96.5378 116° Southeast 353 406 17,000 -1,805 Descending Houston Center
03:58PM 30.3008 -96.4350 115° Southeast 349 402 15,100 -1,854 Descending Houston Center
03:59PM 30.2583 -96.3372 117° Southeast 340 391 13,200 -1,742 Descending Houston Center
04:00PM 30.2200 -96.2414 115° Southeast 328 377 11,500 -1,073 Descending Houston Center
04:01PM 30.1508 -96.1781 142° Southeast 323 372 11,000 -242 Descending Houston Center
04:02PM 30.0519 -96.1264 156° South 319 367 11,000  Level Houston Center
04:03PM 30.0003 -96.0725 138° Southeast 309 356 11,000  Level Houston Center
04:04PM 29.9292 -95.9919 136° Southeast 312 359 11,000  Level Houston Center
04:05PM 29.8664 -95.9203 135° Southeast 316 364 11,000 -677 Level Houston Center
04:06PM 29.8067 -95.8525 135° Southeast 305 351 9,600 -1,415 Descending Houston Center
04:07PM 29.7833 -95.7658 107° East 296 341 8,100 -1,659 Descending Houston Center
04:08PM 29.7697 -95.6781 100° East 279 321 6,200 -1,742 Descending Houston Center
04:09PM 29.7533 -95.5778 101° East 268 308 4,500 -1,415 Descending Houston Center
04:10PM 29.7400 -95.4986 101° East 256 295 3,300 -927 Descending Houston Center
04:11PM 29.7269 -95.4242 101° East 246 283 2,600 -677 Descending Houston Center
04:12PM 29.7142 -95.3619 103° East 223 257 1,900 -829 Descending Houston Center
04:13PM 29.6828 -95.3242 134° Southeast 185 213 900 -780 Descending Houston Center
04:14PM 29.6567 -95.2931 134° Southeast 155 178 300 -387 Descending Houston Center
04:15PM 29.6297 -95.2608 134° Southeast 152 175 100 -194 Descending Houston Center